Weather History for Monroe, MI

Change the Weather History Date:

Friday, April 25, 2014

  Actual Average Record
Temperature  
Mean Temperature 48 °F -  
Max Temperature 55 °F 60 °F 88 °F (1990)
Min Temperature 42 °F 40 °F 28 °F (1934)
Degree Days  
Heating Degree Days 16    
Moisture  
Dew Point 39 °F    
Average Humidity 74    
Maximum Humidity 93    
Minimum Humidity 50    
Precipitation  
Precipitation 0.00 in - - ()
Sea Level Pressure  
Sea Level Pressure 29.73 in    
Wind  
Wind Speed 8 mph (North)    
Max Wind Speed 15 mph    
Max Gust Speed 22 mph    
Visibility 9 miles    
Events Rain    
Averages and records for this station are not official NWS values.
T = Trace of Precipitation, MM = Missing Value Source: NWS Daily Summary

Daily Weather History Graph

Daily Weather History Graph

Search for Another Location

Airport:

Trip Planner

Search our weather history database for the weather conditions in past years. The results will help you decide how hot, cold, wet, or windy it might be!

Date:

Astronomy

Apr. 25, 2014 Rise Set
Actual Time 6:38 AM EDT 8:25 PM EDT
Civil Twilight 6:08 AM EDT 8:55 PM EDT
Nautical Twilight 5:32 AM EDT 9:32 PM EDT
Astronomical Twilight 4:53 AM EDT 10:11 PM EDT
Moon 4:29 AM EDT (4/25) 4:43 PM EDT (4/25)
Length of Visible Light 14h 47m
Length of Day
13h 47m
Waning Crescent, 15% of the Moon is Illuminated
Apr 25
Waning Crescent
Apr 29
New
May 6
First Quarter
May 14
Full
May 21
Last Quarter

Hourly Weather History & Observations

Time (EDT) Temp. Windchill Dew Point Humidity Pressure Visibility Wind Dir Wind Speed Gust Speed Precip Events Conditions
12:11 AM 46.4 °F 40.7 °F 30.2 °F 53% 29.85 in 10.0 mi East 12.7 mph 19.6 mph N/A   Clear
12:31 AM 46.4 °F 41.1 °F 30.2 °F 53% 29.83 in 10.0 mi ESE 11.5 mph - N/A   Clear
12:51 AM 46.4 °F 40.7 °F 30.2 °F 53% 29.83 in 10.0 mi East 12.7 mph - N/A   Clear
1:11 AM 46.4 °F 41.5 °F 32.0 °F 57% 29.82 in 10.0 mi East 10.4 mph - N/A   Clear
1:32 AM 46.4 °F 42.9 °F 32.0 °F 57% 29.82 in 10.0 mi East 6.9 mph - N/A   Clear
1:52 AM 46.4 °F 42.4 °F 32.0 °F 57% 29.81 in 10.0 mi East 8.1 mph - N/A   Clear
2:12 AM 46.4 °F 42.4 °F 33.8 °F 62% 29.80 in 10.0 mi East 8.1 mph - N/A   Clear
2:32 AM 46.4 °F 41.9 °F 33.8 °F 62% 29.78 in 10.0 mi East 9.2 mph - N/A   Clear
2:52 AM 46.4 °F 42.4 °F 32.0 °F 57% 29.77 in 10.0 mi East 8.1 mph - N/A   Clear
3:12 AM 46.4 °F 41.9 °F 32.0 °F 57% 29.76 in 10.0 mi East 9.2 mph - N/A   Clear
3:32 AM 46.4 °F 41.9 °F 33.8 °F 62% 29.74 in 10.0 mi East 9.2 mph - N/A   Clear
3:52 AM 46.4 °F 41.5 °F 33.8 °F 62% 29.73 in 10.0 mi East 10.4 mph - N/A   Clear
4:12 AM 46.4 °F 41.9 °F 33.8 °F 62% 29.73 in 10.0 mi East 9.2 mph - N/A   Clear
4:33 AM 46.4 °F 42.4 °F 33.8 °F 62% 29.72 in 10.0 mi East 8.1 mph - N/A   Clear
4:53 AM 46.4 °F 41.9 °F 33.8 °F 62% 29.71 in 10.0 mi East 9.2 mph - N/A   Clear
5:13 AM 46.4 °F 42.4 °F 33.8 °F 62% 29.69 in 10.0 mi East 8.1 mph - N/A   Clear
5:33 AM 46.4 °F 41.5 °F 33.8 °F 62% 29.68 in 10.0 mi East 10.4 mph - N/A   Clear
5:53 AM 46.4 °F 41.9 °F 32.0 °F 57% 29.68 in 10.0 mi East 9.2 mph - N/A   Mostly Cloudy
6:13 AM 48.2 °F - 30.2 °F 50% 29.67 in 10.0 mi East 9.2 mph - N/A   Overcast
6:33 AM 48.2 °F - 32.0 °F 54% 29.67 in 10.0 mi East 6.9 mph - N/A   Overcast
6:53 AM 48.2 °F - 32.0 °F 54% 29.67 in 10.0 mi East 5.8 mph - N/A   Overcast
7:14 AM 48.2 °F - 33.8 °F 58% 29.67 in 10.0 mi East 5.8 mph - N/A Rain Light Rain
7:34 AM 44.6 °F 41.4 °F 37.4 °F 76% 29.66 in 10.0 mi East 5.8 mph - N/A Rain Light Rain
7:54 AM 46.4 °F 45.2 °F 37.4 °F 71% 29.67 in 10.0 mi ENE 3.5 mph - N/A   Mostly Cloudy
8:14 AM 44.6 °F 43.1 °F 37.4 °F 76% 29.66 in 10.0 mi ENE 3.5 mph - N/A   Drizzle
8:34 AM 44.6 °F - 35.6 °F 71% 29.66 in 10.0 mi Calm Calm - N/A   Light Drizzle
8:54 AM 44.6 °F - 37.4 °F 76% 29.66 in 10.0 mi Calm Calm - N/A Rain Light Rain
9:14 AM 44.6 °F - 37.4 °F 76% 29.66 in 10.0 mi Calm Calm - N/A Rain Light Rain
9:34 AM 44.6 °F - 37.4 °F 76% 29.66 in 7.0 mi Calm Calm - N/A Rain Light Rain
10:14 AM 44.6 °F - 39.2 °F 81% 29.66 in 7.0 mi Calm Calm - N/A Rain Light Rain
10:35 AM 42.8 °F 41.1 °F 39.2 °F 87% 29.64 in 5.0 mi North 3.5 mph - N/A Rain Rain
10:55 AM 42.8 °F - 41.0 °F 93% 29.64 in 3.0 mi Calm Calm - N/A Rain Rain
11:15 AM 44.6 °F - 41.0 °F 87% 29.65 in 7.0 mi Calm Calm - N/A Rain Light Rain
11:35 AM 44.6 °F 42.2 °F 42.8 °F 93% 29.66 in 5.0 mi NNW 4.6 mph - N/A Rain Rain
11:55 AM 44.6 °F 40.7 °F 42.8 °F 93% 29.66 in 4.0 mi NNW 6.9 mph - N/A Rain Light Rain
12:15 PM 44.6 °F 40.2 °F 42.8 °F 93% 29.66 in 5.0 mi NNW 8.1 mph - N/A Rain Light Rain
12:35 PM 44.6 °F 42.2 °F 42.8 °F 93% 29.66 in 7.0 mi North 4.6 mph - N/A   Light Drizzle
12:55 PM 44.6 °F 40.7 °F 42.8 °F 93% 29.67 in 7.0 mi WNW 6.9 mph - N/A Rain Light Rain
1:15 PM 44.6 °F 40.7 °F 42.8 °F 93% 29.68 in 7.0 mi WNW 6.9 mph - N/A Rain Light Rain
1:36 PM 44.6 °F 40.7 °F 42.8 °F 93% 29.67 in 7.0 mi NNW 6.9 mph - N/A   Light Drizzle
1:56 PM 46.4 °F 41.5 °F 42.8 °F 87% 29.69 in 7.0 mi WNW 10.4 mph - N/A   Overcast
2:16 PM 46.4 °F 41.5 °F 44.6 °F 93% 29.69 in 7.0 mi WNW 10.4 mph - N/A   Overcast
2:36 PM 48.2 °F - 44.6 °F 87% 29.70 in 10.0 mi NW 12.7 mph 16.1 mph N/A   Overcast
2:56 PM 48.2 °F - 44.6 °F 87% 29.70 in 10.0 mi NW 10.4 mph 18.4 mph N/A   Overcast
3:16 PM 48.2 °F - 44.6 °F 87% 29.72 in 7.0 mi WNW 12.7 mph 21.9 mph N/A   Overcast
3:36 PM 48.2 °F - 44.6 °F 87% 29.72 in 7.0 mi NW 11.5 mph - N/A   Overcast
3:51 PM 48.2 °F - 44.6 °F 87% 29.73 in 7.0 mi NW 11.5 mph - N/A   Overcast
4:11 PM 48.2 °F - 44.6 °F 87% 29.73 in 5.0 mi NW 13.8 mph 21.9 mph N/A   Overcast
4:32 PM 48.2 °F - 44.6 °F 87% 29.74 in 5.0 mi NW 13.8 mph 18.4 mph N/A   Haze
4:52 PM 48.2 °F - 44.6 °F 87% 29.74 in 7.0 mi WNW 15.0 mph 18.4 mph N/A   Overcast
5:12 PM 50.0 °F - 44.6 °F 82% 29.75 in 7.0 mi NW 12.7 mph 19.6 mph N/A   Overcast
5:32 PM 51.8 °F - 44.6 °F 76% 29.75 in 7.0 mi NW 11.5 mph - N/A   Overcast
5:52 PM 51.8 °F - 44.6 °F 76% 29.75 in 7.0 mi NW 9.2 mph - N/A   Mostly Cloudy
6:12 PM 53.6 °F - 44.6 °F 72% 29.76 in 10.0 mi WNW 11.5 mph - N/A   Scattered Clouds
6:32 PM 53.6 °F - 44.6 °F 72% 29.76 in 10.0 mi WNW 9.2 mph - N/A   Clear
6:52 PM 55.4 °F - 44.6 °F 67% 29.77 in 10.0 mi West 9.2 mph - N/A   Clear
7:12 PM 55.4 °F - 44.6 °F 67% 29.77 in 10.0 mi WNW 5.8 mph - N/A   Clear
7:32 PM 55.4 °F - 44.6 °F 67% 29.77 in 10.0 mi West 5.8 mph - N/A   Clear
7:53 PM 53.6 °F - 44.6 °F 72% 29.78 in 10.0 mi West 3.5 mph - N/A   Clear
8:13 PM 53.6 °F - 44.6 °F 72% 29.78 in 10.0 mi Calm Calm - N/A   Clear
8:33 PM 48.2 °F - 42.8 °F 82% 29.78 in 10.0 mi South 3.5 mph - N/A   Clear
8:53 PM 48.2 °F - 44.6 °F 87% 29.79 in 10.0 mi Calm Calm - N/A   Clear
9:13 PM 48.2 °F - 42.8 °F 82% 29.80 in 7.0 mi Calm Calm - N/A   Clear
9:33 PM 46.4 °F 45.2 °F 42.8 °F 87% 29.81 in 10.0 mi SW 3.5 mph - N/A   Clear
9:53 PM 48.2 °F - 39.2 °F 71% 29.82 in 10.0 mi WSW 4.6 mph - N/A   Clear
10:13 PM 46.4 °F - 39.2 °F 76% 29.81 in 10.0 mi Calm Calm - N/A   Scattered Clouds
10:33 PM 46.4 °F 45.2 °F 41.0 °F 81% 29.81 in 10.0 mi SW 3.5 mph - N/A   Clear
10:53 PM 44.6 °F - 39.2 °F 81% 29.82 in 10.0 mi Calm Calm - N/A   Clear
11:14 PM 44.6 °F - 39.2 °F 81% 29.82 in 10.0 mi Calm Calm - N/A   Clear
11:34 PM 44.6 °F - 39.2 °F 81% 29.82 in 10.0 mi Calm Calm - N/A   Scattered Clouds
11:54 PM 46.4 °F - 39.2 °F 76% 29.82 in 10.0 mi Calm Calm - N/A   Mostly Cloudy